�������l�o���
Date,Time,MP-1(��Sv/h),MP-2(��Sv/h),MP-3(��Sv/h),MP-4(��Sv/h),MP-5(��Sv/h),MP-6(��Sv/h),MP-7(��Sv/h),����,����(m/s),���J
2018/05/22,00:00,0.316,0.197,0.321,0.308,0.301,0.159,0.097,�k,2.7,��
2018/05/22,00:10,0.314,0.196,0.319,0.306,0.300,0.159,0.097,�k,2.3,��
2018/05/22,00:20,0.315,0.196,0.323,0.305,0.301,0.158,0.097,�k�k��,1.5,��
2018/05/22,00:30,0.315,0.196,0.320,0.308,0.300,0.160,0.097,�k�k��,0.6,��
2018/05/22,00:40,0.313,0.197,0.322,0.307,0.300,0.160,0.097,�k,0.7,��
2018/05/22,00:50,0.316,0.196,0.322,0.307,0.300,0.160,0.097,�k�k��,0.8,��
2018/05/22,01:00,0.312,0.197,0.320,0.306,0.300,0.160,0.097,-,CALM,��
2018/05/22,01:10,0.314,0.196,0.322,0.306,0.300,0.159,0.096,�k�k��,2.0,��
2018/05/22,01:20,0.314,0.196,0.321,0.307,0.299,0.159,0.097,�k�k��,0.9,��
2018/05/22,01:30,0.315,0.196,0.321,0.306,0.301,0.159,0.097,�k��,1.1,��
2018/05/22,01:40,0.316,0.196,0.321,0.308,0.299,0.159,0.096,�k,2.5,��
2018/05/22,01:50,0.315,0.197,0.320,0.307,0.303,0.158,0.096,�k,3.5,��
2018/05/22,02:00,0.315,0.198,0.323,0.306,0.299,0.160,0.097,�k,3.6,��
2018/05/22,02:10,0.315,0.196,0.321,0.307,0.302,0.160,0.097,�k�k��,2.2,��
2018/05/22,02:20,0.314,0.197,0.321,0.306,0.299,0.158,0.098,�k�k��,2.0,��
2018/05/22,02:30,0.315,0.198,0.321,0.307,0.301,0.159,0.097,�k,1.8,��
2018/05/22,02:40,0.313,0.196,0.321,0.309,0.301,0.159,0.097,�k,2.0,��
2018/05/22,02:50,0.315,0.197,0.322,0.306,0.299,0.159,0.097,�k,1.2,��
2018/05/22,03:00,0.315,0.196,0.320,0.307,0.300,0.159,0.097,�k,1.0,��
2018/05/22,03:10,0.314,0.195,0.322,0.306,0.299,0.160,0.097,�k,1.5,��
2018/05/22,03:20,0.315,0.197,0.321,0.306,0.302,0.158,0.096,�k�k��,0.8,��
2018/05/22,03:30,0.313,0.195,0.322,0.307,0.300,0.160,0.097,-,CALM,��
2018/05/22,03:40,0.315,0.197,0.321,0.307,0.301,0.158,0.097,-,CALM,��
2018/05/22,03:50,0.314,0.196,0.321,0.307,0.300,0.159,0.098,-,CALM,��
2018/05/22,04:00,0.315,0.196,0.321,0.306,0.300,0.159,0.097,-,CALM,��
2018/05/22,04:10,0.315,0.197,0.321,0.307,0.301,0.158,0.097,-,CALM,��
2018/05/22,04:20,0.313,0.197,0.322,0.307,0.300,0.159,0.097,-,CALM,��
2018/05/22,04:30,0.316,0.195,0.322,0.307,0.302,0.158,0.097,-,CALM,��
2018/05/22,04:40,0.315,0.197,0.320,0.306,0.298,0.159,0.096,-,CALM,��
2018/05/22,04:50,0.314,0.196,0.322,0.306,0.302,0.158,0.097,-,CALM,��
2018/05/22,05:00,0.315,0.197,0.322,0.306,0.298,0.159,0.097,-,CALM,��
2018/05/22,05:10,0.313,0.196,0.320,0.306,0.299,0.158,0.097,-,CALM,��
2018/05/22,05:20,0.315,0.196,0.320,0.307,0.299,0.159,0.097,-,CALM,��
2018/05/22,05:30,0.315,0.196,0.319,0.306,0.300,0.159,0.097,��,0.8,��
2018/05/22,05:40,0.315,0.195,0.322,0.307,0.298,0.158,0.097,��,0.8,��
2018/05/22,05:50,0.316,0.196,0.322,0.306,0.302,0.159,0.097,��,0.9,��
2018/05/22,06:00,0.313,0.195,0.321,0.306,0.296,0.159,0.097,-,CALM,��
2018/05/22,06:10,0.315,0.196,0.322,0.307,0.301,0.159,0.098,-,CALM,��
2018/05/22,06:20,0.314,0.195,0.320,0.307,0.299,0.159,0.097,-,CALM,��
2018/05/22,06:30,0.315,0.197,0.321,0.307,0.299,0.158,0.096,-,CALM,��
2018/05/22,06:40,0.314,0.196,0.321,0.305,0.301,0.158,0.097,��쓌,1.1,��
2018/05/22,06:50,0.315,0.194,0.322,0.307,0.299,0.158,0.096,��쐼,1.4,��
2018/05/22,07:00,0.315,0.197,0.319,0.306,0.301,0.158,0.096,�쐼,1.4,��
2018/05/22,07:10,0.314,0.195,0.320,0.307,0.297,0.158,0.097,-,CALM,��
2018/05/22,07:20,0.313,0.194,0.321,0.305,0.302,0.159,0.097,-,CALM,��
2018/05/22,07:30,0.314,0.196,0.319,0.302,0.300,0.159,0.096,-,CALM,��
2018/05/22,07:40,0.311,0.197,0.316,0.305,0.300,0.159,0.096,-,CALM,��
2018/05/22,07:50,0.314,0.196,0.316,0.305,0.302,0.158,0.097,-,CALM,��
2018/05/22,08:00,0.314,0.194,0.320,0.304,0.297,0.158,0.097,�쓌,0.9,��
2018/05/22,08:10,0.312,0.197,0.321,0.303,0.299,0.159,0.097,��쓌,1.7,��
2018/05/22,08:20,0.315,0.197,0.319,0.303,0.301,0.158,0.097,��,2.7,��
2018/05/22,08:30,0.314,0.196,0.321,0.302,0.299,0.159,0.097,��쓌,3.3,��
2018/05/22,08:40,0.312,0.195,0.322,0.304,0.296,0.159,0.099,��쓌,2.7,��
2018/05/22,08:50,0.314,0.194,0.319,0.308,0.301,0.158,0.097,��,3.1,��
2018/05/22,09:00,0.316,0.195,0.323,0.307,0.302,0.159,0.098,��,1.0,��
2018/05/22,09:10,0.314,0.195,0.322,0.306,0.299,0.160,0.097,��쓌,0.9,��
2018/05/22,09:20,0.312,0.198,0.322,0.305,0.298,0.159,0.098,�쓌,1.1,��
2018/05/22,09:30,0.311,0.197,0.324,0.304,0.298,0.159,0.098,��쓌,2.8,��
2018/05/22,09:40,0.312,0.195,0.321,0.303,0.300,0.158,0.097,�쓌,3.4,��
2018/05/22,09:50,0.316,0.195,0.324,0.302,-,0.160,0.096,��쓌,3.8,��
2018/05/22,10:00,0.315,0.196,0.321,0.303,-,0.160,0.096,��쓌,4.4,��
2018/05/22,10:10,0.313,0.198,0.320,0.307,-,0.158,0.097,��,3.9,��
2018/05/22,10:20,0.311,0.196,0.323,0.310,-,0.159,0.097,��,2.3,��
2018/05/22,10:30,0.310,0.196,0.321,0.307,-,0.159,0.098,��쓌,2.1,��
2018/05/22,10:40,0.311,0.195,0.320,0.305,-,0.159,0.097,��쓌,2.4,��
2018/05/22,10:50,0.311,0.195,0.320,0.305,-,0.158,0.097,��쓌,2.3,��
2018/05/22,11:00,0.316,0.196,0.318,0.305,-,0.158,0.096,��,1.4,��
2018/05/22,11:10,0.315,0.196,0.317,0.305,-,0.159,0.097,��쓌,1.6,��
2018/05/22,11:20,0.314,0.196,0.318,0.304,-,0.159,0.098,��쓌,0.7,��
2018/05/22,11:30,0.312,0.194,0.318,0.305,-,0.158,0.098,��쓌,1.9,��
2018/05/22,11:40,0.311,0.196,0.319,0.308,-,0.158,0.096,�쓌,1.2,��
2018/05/22,11:50,0.311,0.197,0.322,0.309,-,0.159,0.096,��쓌,2.4,��
2018/05/22,12:00,0.311,0.196,0.321,0.307,-,0.159,0.095,�쓌,1.0,��
2018/05/22,12:10,0.316,0.194,0.320,0.306,-,0.159,0.097,�쓌,1.2,��
2018/05/22,12:20,0.314,0.197,0.319,0.306,-,0.158,0.097,���쓌,1.4,��
2018/05/22,12:30,0.314,0.198,0.319,0.304,-,0.159,0.096,��쓌,2.4,��
2018/05/22,12:40,0.313,0.196,0.318,0.303,-,0.158,0.097,��,2.0,��
2018/05/22,12:50,0.312,0.196,0.319,0.305,-,0.159,0.096,��쓌,3.4,��
2018/05/22,13:00,0.315,0.195,0.320,0.303,-,0.159,0.097,��쓌,2.3,��
2018/05/22,13:10,0.317,0.196,0.319,0.304,-,0.159,0.097,��,5.1,��
2018/05/22,13:20,0.314,0.197,0.319,0.303,-,0.158,0.097,��,5.3,��
2018/05/22,13:30,0.312,0.196,0.319,0.308,-,0.158,0.097,��쓌,5.7,��
2018/05/22,13:40,0.313,0.196,0.320,0.309,-,0.158,0.096,��,6.2,��
2018/05/22,13:50,0.313,0.195,0.320,0.308,-,0.159,0.095,��,6.6,��
2018/05/22,14:00,0.318,0.196,0.320,0.307,-,0.158,0.096,��,5.8,��
2018/05/22,14:10,0.315,0.199,0.318,0.306,-,0.158,0.096,��,6.9,��
2018/05/22,14:20,0.314,0.198,0.320,0.306,-,0.159,0.097,��,7.7,��
2018/05/22,14:30,0.313,0.196,0.322,0.305,-,0.159,0.097,��,9.2,��
2018/05/22,14:40,0.312,0.195,0.325,0.310,-,0.158,0.096,��,7.1,��
2018/05/22,14:50,0.312,0.197,0.323,0.310,-,0.159,0.096,��,8.1,��
2018/05/22,15:00,0.312,0.198,0.322,0.308,-,0.159,0.098,��,8.9,��
2018/05/22,15:10,0.311,0.197,0.322,0.311,0.299,0.159,0.098,��,9.5,��
2018/05/22,15:20,0.313,0.196,0.322,0.310,0.299,0.159,0.097,��,9.8,��
2018/05/22,15:30,0.317,0.198,0.319,0.306,0.297,0.161,0.097,��,10.6,��
2018/05/22,15:40,0.318,0.199,0.324,0.310,0.298,0.159,0.098,��,12.3,��
2018/05/22,15:50,0.315,0.197,0.324,0.308,0.302,0.159,0.098,��,13.1,��
2018/05/22,16:00,0.314,0.197,0.321,0.309,0.302,0.160,0.097,��,11.2,��
2018/05/22,16:10,0.313,0.198,0.324,0.311,0.302,0.160,0.098,��,10.1,��
2018/05/22,16:20,0.316,0.198,0.324,0.308,0.298,0.161,0.098,��,11.1,��
2018/05/22,16:30,0.318,0.199,0.322,0.310,0.298,0.159,0.098,��,11.5,��
2018/05/22,16:40,0.316,0.197,0.326,0.309,0.302,0.159,0.097,��,11.5,��
2018/05/22,16:50,0.313,0.199,0.323,0.307,0.303,0.160,0.098,��,10.6,��
2018/05/22,17:00,0.313,0.197,0.323,0.310,0.301,0.160,0.097,��,11.2,��
2018/05/22,17:10,0.317,0.199,0.325,0.308,0.297,0.159,0.098,��,11.4,��
2018/05/22,17:20,0.317,0.198,0.322,0.308,0.300,0.160,0.097,��쐼,10.7,��
2018/05/22,17:30,0.315,0.197,0.325,0.309,0.302,0.159,0.097,��,10.3,��
2018/05/22,17:40,0.311,0.198,0.322,0.308,0.301,0.159,0.097,��쐼,9.6,��
2018/05/22,17:50,0.313,0.196,0.323,0.309,0.298,0.159,0.097,��쐼,9.5,��
2018/05/22,18:00,0.319,0.198,0.324,0.307,0.302,0.159,0.098,��쐼,8.8,��
2018/05/22,18:10,0.314,0.198,0.322,0.310,0.301,0.158,0.097,��쐼,7.9,��
2018/05/22,18:20,0.313,0.198,0.325,0.309,0.300,0.158,0.097,��쐼,9.5,��
2018/05/22,18:30,0.316,0.198,0.321,0.310,0.303,0.159,0.097,��쐼,10.1,��
2018/05/22,18:40,0.314,0.198,0.324,0.308,0.300,0.158,0.097,��쐼,9.8,��
2018/05/22,18:50,0.315,0.196,0.323,0.308,0.303,0.160,0.097,��쐼,10.6,��
2018/05/22,19:00,0.316,0.198,0.323,0.309,0.301,0.160,0.097,��쐼,10.1,��
2018/05/22,19:10,0.316,0.198,0.324,0.308,0.301,0.159,0.097,��쐼,10.4,��
2018/05/22,19:20,0.318,0.198,0.322,0.310,0.300,0.159,0.097,��쐼,10.6,��
2018/05/22,19:30,0.316,0.198,0.323,0.308,0.301,0.160,0.096,��쐼,10.9,��
2018/05/22,19:40,0.317,0.198,0.322,0.309,0.300,0.159,0.097,��쐼,10.6,��
2018/05/22,19:50,0.315,0.198,0.324,0.308,0.302,0.159,0.097,��쐼,11.2,��
2018/05/22,20:00,0.317,0.197,0.322,0.311,0.300,0.159,0.097,��쐼,11.1,��
2018/05/22,20:10,0.313,0.198,0.324,0.308,0.302,0.159,0.097,��쐼,10.7,��
2018/05/22,20:20,0.317,0.198,0.322,0.310,0.301,0.159,0.097,��쐼,11.1,��
2018/05/22,20:30,0.315,0.197,0.324,0.308,0.304,0.159,0.097,��쐼,9.5,��
2018/05/22,20:40,0.316,0.197,0.322,0.308,0.301,0.158,0.097,��쐼,9.5,��
2018/05/22,20:50,0.315,0.198,0.324,0.309,0.300,0.159,0.097,��,9.0,��
2018/05/22,21:00,0.317,0.198,0.322,0.310,0.300,0.158,0.097,��,9.5,��
2018/05/22,21:10,0.314,0.197,0.324,0.308,0.302,0.159,0.097,��쐼,10.7,��
2018/05/22,21:20,0.317,0.198,0.322,0.310,0.300,0.159,0.097,��쐼,10.1,��
2018/05/22,21:30,0.314,0.197,0.324,0.308,0.300,0.159,0.097,��쐼,10.0,��
2018/05/22,21:40,0.316,0.199,0.321,0.310,0.299,0.160,0.097,��쐼,10.0,��
2018/05/22,21:50,0.315,0.197,0.325,0.308,0.301,0.159,0.098,��쐼,9.5,��
2018/05/22,22:00,0.317,0.197,0.323,0.309,0.298,0.159,0.097,��쐼,9.3,��
2018/05/22,22:10,0.316,0.198,0.324,0.309,0.302,0.158,0.096,��쐼,10.1,��
2018/05/22,22:20,0.316,0.198,0.324,0.309,0.299,0.160,0.097,��쐼,9.6,��
2018/05/22,22:30,0.314,0.197,0.325,0.307,0.301,0.159,0.096,��쐼,9.3,��
2018/05/22,22:40,0.317,0.196,0.324,0.309,0.300,0.160,0.097,��쐼,9.2,��
2018/05/22,22:50,0.316,0.197,0.323,0.308,0.302,0.158,0.097,��쐼,8.3,��
2018/05/22,23:00,0.316,0.196,0.323,0.309,0.299,0.159,0.097,��쐼,7.9,��
2018/05/22,23:10,0.315,0.197,0.324,0.308,0.302,0.159,0.097,��쐼,9.2,��
2018/05/22,23:20,0.317,0.197,0.323,0.311,0.299,0.160,0.097,��쐼,10.1,��
2018/05/22,23:30,0.315,0.196,0.323,0.309,0.300,0.159,0.097,��쐼,9.0,��
2018/05/22,23:40,0.317,0.197,0.324,0.309,0.299,0.159,0.097,��쐼,8.3,��
2018/05/22,23:50,0.316,0.198,0.323,0.307,0.301,0.159,0.096,��쐼,9.6,��
